Las Vegas, NV

7:49 AM PST on February 19, 2017 (GMT -0800)
North Las Vegas

Weather History for KVGT - October, 2012

Change the Weather History Date:

Thursday, October 4, 2012

  Actual Average Record
Temperature  
Mean Temperature 78 °F 74 °F  
Max Temperature 91 °F 85 °F 93 °F (2012)
Min Temperature 66 °F 62 °F 52 °F (2002)
Degree Days  
Heating Degree Days 0 0  
Month to date heating degree days 0  
Since 1 July heating degree days 1  
Cooling Degree Days 14 9  
Month to date cooling degree days 38  
Year to date cooling degree days 3168  
Growing Degree Days 28 (Base 50)    
Moisture  
Dew Point 30 °F    
Average Humidity 17    
Maximum Humidity 25    
Minimum Humidity 10    
Precipitation  
Precipitation 0.00 in 0.01 in 0.05 in (2008)
Month to date precipitation 0.02  
Year to date precipitation 3.98  
Sea Level Pressure  
Sea Level Pressure 29.92 in    
Wind  
Wind Speed 7 mph (WNW)    
Max Wind Speed 13 mph    
Max Gust Speed -    
Visibility 10 miles    
Events      
T = Trace of Precipitation, MM = Missing Value Source: NWS Daily Summary

Daily Weather History Graph

Daily Weather History Graph

Search for Another Location

Airport or City:

Trip Planner

Search our weather history database for the weather conditions in past years. The results will help you decide how hot, cold, wet, or windy it might be!

Date:

Astronomy

Oct. 04, 2012 Rise Set
Actual Time 6:38 AM PDT 6:19 PM PDT
Civil Twilight 6:13 AM PDT 6:44 PM PDT
Nautical Twilight 5:43 AM PDT 7:14 PM PDT
Astronomical Twilight 5:13 AM PDT 7:44 PM PDT
Moon 9:06 PM PDT (10/4) 10:51 AM PDT (10/4)
Length of Visible Light 12h 31m
Length of Day
11h 40m
Waning Gibbous, 81% of the Moon is Illuminated
Oct 4
Waning Gibbous
Oct 8
Last Quarter
Oct 15
New
Oct 21
First Quarter
Oct 29
Full

Hourly Weather History & Observations

Time (PDT) Temp. Dew Point Humidity Pressure Visibility Wind Dir Wind Speed Gust Speed Precip Events Conditions
12:04 AM 82.4 °F 30.2 °F 15% 29.90 in 10.0 mi SW 11.5 mph - N/A   Clear
12:53 AM 80.1 °F 30.9 °F 17% 29.88 in 10.0 mi SSW 9.2 mph - N/A   Clear
1:53 AM 72.0 °F 30.9 °F 22% 29.90 in 10.0 mi NW 6.9 mph - N/A   Clear
2:53 AM 70.0 °F 30.9 °F 24% 29.90 in 10.0 mi NNW 4.6 mph - N/A   Clear
3:53 AM 68.0 °F 30.9 °F 25% 29.91 in 10.0 mi North 5.8 mph - N/A   Clear
4:53 AM 68.0 °F 28.9 °F 23% 29.92 in 10.0 mi North 5.8 mph - N/A   Clear
5:53 AM 68.0 °F 28.9 °F 23% 29.94 in 10.0 mi NNW 5.8 mph - N/A   Clear
6:53 AM 66.9 °F 30.0 °F 25% 29.95 in 10.0 mi NNW 6.9 mph - N/A   Clear
7:53 AM 71.1 °F 30.9 °F 23% 29.97 in 10.0 mi NNW 4.6 mph - N/A   Clear
8:53 AM 77.0 °F 32.0 °F 19% 29.98 in 10.0 mi North 4.6 mph - N/A   Clear
9:53 AM 80.1 °F 32.0 °F 17% 29.99 in 10.0 mi North 4.6 mph - N/A   Clear
10:53 AM 81.0 °F 32.0 °F 17% 30.00 in 10.0 mi Calm Calm - N/A   Clear
11:53 AM 82.9 °F 30.9 °F 15% 29.98 in 10.0 mi Calm Calm - N/A   Clear
12:53 PM 86.0 °F 30.0 °F 13% 29.95 in 10.0 mi Variable 3.5 mph - N/A   Clear
1:53 PM 89.1 °F 30.9 °F 12% 29.93 in 10.0 mi Calm Calm - N/A   Clear
2:53 PM 91.0 °F 30.0 °F 11% 29.91 in 10.0 mi ESE 5.8 mph - N/A   Clear
3:53 PM 91.9 °F 27.0 °F 10% 29.89 in 10.0 mi ESE 8.1 mph - N/A   Clear
4:53 PM 91.9 °F 28.0 °F 10% 29.88 in 10.0 mi South 12.7 mph - N/A   Clear
5:53 PM 91.4 °F 26.6 °F 10% 29.88 in 10.0 mi SW 10.4 mph - N/A   Clear
6:53 PM 87.1 °F 28.9 °F 12% 29.89 in 10.0 mi SW 9.2 mph - N/A   Clear
7:53 PM 84.9 °F 30.9 °F 14% 29.89 in 10.0 mi SW 9.2 mph - N/A   Clear
8:53 PM 82.9 °F 30.9 °F 15% 29.89 in 10.0 mi WSW 6.9 mph - N/A   Clear
9:53 PM 80.1 °F 30.9 °F 17% 29.91 in 10.0 mi NW 6.9 mph - N/A   Clear
10:53 PM 75.0 °F 32.0 °F 21% 29.93 in 10.0 mi WNW 3.5 mph - N/A   Clear
11:53 PM 77.0 °F 32.0 °F 19% 29.93 in 10.0 mi Calm Calm - N/A   Clear